Weather History for Moab, UT

Change the Weather History Date:

Tuesday, November 20, 2012

  Actual Average Record
Temperature  
Mean Temperature 45 °F 36 °F  
Max Temperature 60 °F 48 °F 68 °F (1967)
Min Temperature 29 °F 25 °F 17 °F (1956)
Degree Days  
Heating Degree Days 20 29  
Month to date heating degree days 439 480  
Since 1 July heating degree days 786 899  
Cooling Degree Days 0 0  
Month to date cooling degree days 0 0  
Year to date cooling degree days 1513 1289  
Moisture  
Dew Point 25 °F    
Average Humidity 49    
Maximum Humidity 70    
Minimum Humidity 28    
Precipitation  
Precipitation 0.00 in 0.03 in 0.52 in (1992)
Month to date precipitation 0.06 0.47  
Year to date precipitation 2.66 7.98  
Sea Level Pressure  
Sea Level Pressure 30.24 in    
Wind  
Wind Speed 2 mph (SSE)    
Max Wind Speed 12 mph    
Max Gust Speed 13 mph    
Visibility 10 miles    
Events      
T = Trace of Precipitation, MM = Missing Value Source: NWS Daily Summary

Daily Weather History Graph

Daily Weather History Graph

Search for Another Location

Airport:

Trip Planner

Search our weather history database for the weather conditions in past years. The results will help you decide how hot, cold, wet, or windy it might be!

Date:

Astronomy

Nov. 20, 2012 Rise Set
Actual Time 7:07 AM MST 5:01 PM MST
Civil Twilight 6:38 AM MST 5:30 PM MST
Nautical Twilight 6:06 AM MST 6:03 PM MST
Astronomical Twilight 5:34 AM MST 6:34 PM MST
Moon 12:45 PM MST (11/20) No Moon Set
Length of Visible Light 10h 52m
Length of Day
9h 54m
First Quarter, 52% of the Moon is Illuminated
Nov 20
First Quarter
Nov 28
Full
Dec 6
Last Quarter
Dec 13
New
Dec 19
First Quarter

Hourly Weather History & Observations

Time (MST) Temp. Windchill Dew Point Humidity Pressure Visibility Wind Dir Wind Speed Gust Speed Precip Events Conditions
12:53 AM 35.1 °F - 24.1 °F 64% 30.27 in 10.0 mi Calm Calm - N/A   Clear
1:53 AM 33.1 °F 30.0 °F 24.1 °F 70% 30.28 in 10.0 mi WSW 3.5 mph - N/A   Clear
2:53 AM 34.0 °F - 25.0 °F 70% 30.28 in 10.0 mi Calm Calm - N/A   Clear
3:53 AM 33.1 °F - 24.1 °F 70% 30.28 in 10.0 mi Calm Calm - N/A   Clear
4:53 AM 33.8 °F - 24.8 °F 70% 30.30 in 10.0 mi Calm Calm - N/A   Clear
5:53 AM 36.0 °F - 26.1 °F 67% 30.30 in 10.0 mi Calm Calm - N/A   Clear
6:53 AM 36.0 °F 33.3 °F 27.0 °F 70% 30.32 in 10.0 mi SSE 3.5 mph - N/A   Clear
7:53 AM 37.0 °F 31.6 °F 27.0 °F 67% 30.34 in 10.0 mi SE 6.9 mph - N/A   Clear
8:53 AM 44.1 °F 39.5 °F 28.9 °F 55% 30.33 in 10.0 mi SSE 8.1 mph - N/A   Clear
9:53 AM 48.0 °F - 30.0 °F 50% 30.32 in 10.0 mi SE 9.2 mph - N/A   Clear
10:53 AM 51.1 °F - 28.9 °F 43% 30.30 in 10.0 mi SE 8.1 mph - N/A   Clear
11:53 AM 54.0 °F - 28.0 °F 37% 30.26 in 10.0 mi Calm Calm - N/A   Clear
12:53 PM 55.9 °F - 27.0 °F 33% 30.22 in 10.0 mi Calm Calm - N/A   Clear
1:53 PM 57.9 °F - 26.1 °F 30% 30.19 in 10.0 mi Calm Calm - N/A   Clear
2:53 PM 59.0 °F - 26.1 °F 28% 30.17 in 10.0 mi Calm Calm - N/A   Clear
3:53 PM 59.0 °F - 26.1 °F 28% 30.16 in 10.0 mi Calm Calm - N/A   Clear
4:53 PM 55.0 °F - 24.1 °F 30% 30.17 in 10.0 mi NNE 4.6 mph - N/A   Clear
5:53 PM 48.0 °F - 21.9 °F 36% 30.18 in 10.0 mi Calm Calm - N/A   Clear
6:53 PM 42.1 °F - 19.0 °F 40% 30.20 in 10.0 mi Calm Calm - N/A   Clear
7:53 PM 39.0 °F - 21.0 °F 49% 30.21 in 10.0 mi Calm Calm - N/A   Clear
8:53 PM 41.0 °F - 25.0 °F 53% 30.18 in 10.0 mi Calm Calm - N/A   Clear
9:53 PM 37.0 °F - 21.0 °F 52% 30.18 in 10.0 mi Calm Calm - N/A   Clear
10:53 PM 33.1 °F 28.7 °F 18.0 °F 54% 30.19 in 10.0 mi West 4.6 mph - N/A   Clear
11:53 PM 33.1 °F - 21.0 °F 61% 30.17 in 10.0 mi Calm Calm - N/A   Clear